Terug naar catalogus

STARLINK-38075

ActiefCommunicatieSSO
NORAD 100227·PAYLOAD·🇺🇸 United States

Gelanceerd Aug 4, 2026 vanaf Vandenberg Space Force Base

Loading…

Volgende Passages (komende 24 uur)

TLE

VersSource: Space-Track

Epoch: Sep 14, 2026, 22:26 UTC

1 A0227U 26177Q   26257.93478255  .00019847  00000-0  36547-3 0  9996
2 A0227  97.2834 308.7516 0001357  89.2272 270.9134 15.49204377  7579

Volg STARLINK-38075 in realtime met AllMySat

Download on the App Store